Weather in Denver

United States     39°44′23″N   104°59′08″W
temp.,
°C
wind,
m/s
gust,
m/s
humid.,
%
clouds,
%
prec.,
mm/h
press.,
hPa
HPBL,
m
25 may, wed
wed2500:00+9wnw345585 0.1 1016599
03:00+8n11635 0.0 1015100
06:00+7wnw12640 0.0 1016119
09:00+11n24390 0.0 1016875
12:00+16ne36265 0.0 10132118
15:00+20nne57200 0.0 10102200
18:00+22nne4819100 0.0 10073148
21:00+18wnw510305 0.0 1009588
26 may, thu
thu2600:00+15nw23390 0.0 101391
03:00+13sw22420 0.0 101344
06:00+12sw22460 0.0 101550
09:00+18sw12320 0.0 1014369
12:00+24e3416100 0.0 10111722
15:00+29nne17115 0.0 10083785
18:00+28ne361343 0.0 10072759
21:00+23ssw112477 0.0 101027
27 may, fri
fri2700:00+19ssw23344 0.0 101183
03:00+17wsw223711 0.0 101129
06:00+16ssw223992 0.0 101242
09:00+22ssw23259 0.0 1010273
12:00+30e251275 0.0 10052722
15:00+28nnw5617100 0.0 1004949
18:00+23e682687 0.3 1004480
21:00+21sse263574 0.2 1004158
28 may, sat
sat2800:00+19w1134100 0.2 100623
03:00+17ssw223263 0.0 100529
06:00+17ssw3429100 0.0 100481
09:00+22ssw3622100 0.0 1002267
12:00+28wsw599100 0.0 9983776
15:00+30w7118100 0.0 9944600
18:00+29w7129100 0.0 9924014
21:00+25wsw61311100 0.0 9931588
29 may, sun
sun2900:00+21s3816100 0.0 994250
03:00+19ssw36245 0.0 994123
06:00+17sw24332 0.0 995190
09:00+22ssw58235 0.0 9931660
12:00+27ssw5111597 0.0 9894095
15:00+28s8111568 0.0 9873976
18:00+27s815140 0.0 9863041
21:00+16n685311 0.0 995535